Weather History for Monroe, LA

Change the Weather History Date:

Thursday, August 15, 2013

  Actual Average Record
Temperature  
Mean Temperature 76 °F 83 °F  
Max Temperature 88 °F 95 °F 104 °F (2007)
Min Temperature 63 °F 71 °F 56 °F (2004)
Degree Days  
Heating Degree Days 0 0  
Month to date heating degree days 0 0  
Since 1 June heating degree days 0 0  
Since 1 July heating degree days 0 0  
Cooling Degree Days 11 18  
Month to date cooling degree days 296 270  
Year to date cooling degree days 1587 1730  
Since 1 June cooling degree days 1237 1295  
Growing Degree Days 25 (Base 50)    
Moisture  
Dew Point 61 °F    
Average Humidity 65    
Maximum Humidity 90    
Minimum Humidity 40    
Precipitation  
Precipitation 0.00 in 0.10 in 2.27 in (1933)
Month to date precipitation 0.02 1.45  
Year to date precipitation 32.25 33.75  
Snow  
Snow 0.00 in - - ()
Month to date snowfall 0.0  
Since 1 June snowfall 0.0  
Since 1 July snowfall 0.0  
Snow Depth 0.00 in    
Sea Level Pressure  
Sea Level Pressure 30.01 in    
Wind  
Wind Speed 5 mph (North)    
Max Wind Speed 14 mph    
Max Gust Speed 16 mph    
Visibility 10 miles    
Events      
T = Trace of Precipitation, MM = Missing Value Source: NWS Daily Summary

Daily Weather History Graph

Daily Weather History Graph

Search for Another Location

Airport:

Trip Planner

Search our weather history database for the weather conditions in past years. The results will help you decide how hot, cold, wet, or windy it might be!

Date:

Astronomy

Aug. 15, 2013 Rise Set
Actual Time 6:32 AM CDT 7:52 PM CDT
Civil Twilight 6:06 AM CDT 8:18 PM CDT
Nautical Twilight 5:35 AM CDT 8:49 PM CDT
Astronomical Twilight 5:03 AM CDT 9:21 PM CDT
Moon 3:04 PM CDT (8/15) 12:46 AM CDT (8/15)
Length of Visible Light 14h 12m
Length of Day
13h 20m
Waxing Gibbous, 64% of the Moon is Illuminated
Aug 15
Waxing Gibbous
Aug 20
Full
Aug 28
Last Quarter
Sep 5
New
Sep 12
First Quarter

Hourly Weather History & Observations

Time (CDT) Temp. Heat Index Dew Point Humidity Pressure Visibility Wind Dir Wind Speed Gust Speed Precip Events Conditions
12:53 AM 69.1 °F - 57.9 °F 68% 30.04 in 10.0 mi North 5.8 mph - N/A   Clear
1:53 AM 66.9 °F - 57.9 °F 73% 30.02 in 10.0 mi North 4.6 mph - N/A   Clear
2:53 AM 66.0 °F - 57.9 °F 75% 30.01 in 10.0 mi NNE 5.8 mph - N/A   Clear
3:53 AM 64.0 °F - 59.0 °F 84% 30.00 in 10.0 mi NNE 4.6 mph - N/A   Clear
4:53 AM 64.0 °F - 59.0 °F 84% 30.01 in 10.0 mi North 4.6 mph - N/A   Clear
5:53 AM 63.0 °F - 59.0 °F 87% 30.02 in 10.0 mi NNE 3.5 mph - N/A   Clear
6:53 AM 64.0 °F - 59.0 °F 84% 30.04 in 10.0 mi North 4.6 mph - N/A   Clear
7:53 AM 66.9 °F - 60.1 °F 79% 30.05 in 10.0 mi North 5.8 mph - N/A   Clear
8:53 AM 71.1 °F - 61.0 °F 70% 30.06 in 10.0 mi NNE 4.6 mph - N/A   Clear
9:53 AM 75.0 °F - 62.1 °F 64% 30.06 in 10.0 mi Calm Calm - N/A   Partly Cloudy
10:53 AM 78.1 °F - 63.0 °F 60% 30.05 in 10.0 mi Calm Calm - N/A   Clear
11:53 AM 81.0 °F 83.0 °F 66.0 °F 60% 30.04 in 10.0 mi NNW 5.8 mph - N/A   Clear
12:53 PM 82.9 °F 84.6 °F 64.9 °F 54% 30.02 in 10.0 mi North 4.6 mph - N/A   Clear
1:53 PM 86.0 °F 86.8 °F 63.0 °F 46% 30.01 in 10.0 mi NE 6.9 mph - N/A   Scattered Clouds
2:53 PM 86.0 °F 86.1 °F 61.0 °F 43% 29.99 in 10.0 mi NW 5.8 mph - N/A   Clear
3:53 PM 87.1 °F 86.7 °F 60.1 °F 40% 29.98 in 10.0 mi North 6.9 mph - N/A   Clear
4:53 PM 84.9 °F 85.9 °F 63.0 °F 48% 29.97 in 10.0 mi North 11.5 mph - N/A   Clear
5:53 PM 84.9 °F 85.4 °F 62.1 °F 46% 29.97 in 10.0 mi NNW 8.1 mph - N/A   Clear
6:53 PM 82.9 °F 84.0 °F 63.0 °F 51% 29.96 in 10.0 mi North 4.6 mph - N/A   Clear
7:53 PM 78.1 °F - 63.0 °F 60% 29.98 in 10.0 mi North 4.6 mph - N/A   Clear
8:53 PM 75.0 °F - 61.0 °F 62% 30.00 in 10.0 mi ENE 3.5 mph - N/A   Scattered Clouds
9:53 PM 73.9 °F - 61.0 °F 64% 30.01 in 10.0 mi NE 9.2 mph - N/A   Mostly Cloudy
10:53 PM 72.0 °F - 60.1 °F 66% 30.02 in 10.0 mi NE 8.1 mph - N/A   Scattered Clouds